Location: Kampernieuwstad
(52.5135°N, 5.8742°E)
Time: 22:38:32
(UTC+00:00)

Okean O Rocket - Pass Details

Date: 15 May 2026
Orbit: 614 x 633 km, 98.0° (Epoch: 10 June)

Event Time Altitude Azimuth Distance (km) Brightness Sun altitude
Exits shadow 21:29:49 - 209° (SSW) 2,599 4.5 -13.6°
Reaches altitude 10° 21:31:45 10° 223° (SW) 1,973 4.0 -13.8°
Maximum altitude 21:34:51 19° 269° (W) 1,466 3.8 -14.0°
Drops below altitude 10° 21:37:59 10° 316° (NW) 1,987 5.4 -14.2°
Sets 21:40:43 0° 334° (NNW) 2,900 7.0 -14.4°
